Theta_e
350 346 343 349 363 363 363 361 356 356 351 343 342 345 350 352 354 348 339 338 336 342 344 346 348 348 347 349 350 349 345 345 350 348 346 343 344 344 344 349 349 350 349 349 351 350 351 351 351
349 345 347 356 364 367 363 359 361 357 347 342 343 352 355 356 346 339 341 338 337 342 346 348 347 346 348 345 346 346 344 347 347 345 347 350 346 349 350 348 350 350 350 350 351 350 351 348 347
345 348 354 359 361 366 364 361 359 351 343 343 354 350 352 351 341 340 341 338 341 342 346 346 345 349 351 346 350 350 344 350 349 346 347 349 348 348 347 350 349 350 349 350 350 350 350 350 347
344 348 353 366 364 358 359 358 355 352 351 352 353 356 345 344 339 345 340 340 342 343 346 347 347 349 352 349 350 351 350 348 350 349 348 349 349 346 350 345 350 349 350 350 349 349 344 345 345
349 352 361 363 362 355 356 358 355 356 357 354 353 352 345 345 346 342 341 342 343 344 346 346 345 349 351 351 351 350 349 349 348 349 349 347 350 350 348 347 349 348 348 349 349 348 345 345 345
356 355 364 366 363 357 356 356 358 358 355 353 350 351 351 347 345 344 342 343 345 345 346 345 346 348 350 351 350 350 351 350 347 349 348 351 348 350 349 348 347 348 347 348 348 346 346 345 344
356 358 363 361 362 359 355 352 359 359 355 354 349 355 351 347 345 345 344 344 346 345 343 347 350 351 351 349 351 349 351 350 350 350 349 351 350 347 350 350 349 349 348 347 346 345 344 343 342
351 356 360 358 363 362 353 354 355 358 355 347 348 353 354 346 347 346 346 345 345 344 346 349 349 351 349 351 348 351 350 351 350 347 350 350 350 350 347 346 349 348 347 346 343 342 344 345 344
346 357 357 358 361 359 354 358 352 352 353 354 353 348 346 348 348 348 348 348 347 350 350 350 352 351 350 351 351 350 351 350 351 351 347 349 349 347 348 347 349 349 348 346 339 341 343 344 344
349 353 356 355 356 357 355 352 355 357 356 353 351 347 348 348 347 347 347 347 348 351 351 349 350 347 347 350 352 351 351 351 350 349 348 348 347 346 346 349 349 349 349 346 342 341 342 343 343
346 354 349 357 355 353 355 351 354 357 359 353 352 351 349 347 347 347 345 345 346 349 348 346 347 341 342 353 351 349 348 347 346 347 347 348 346 342 346 350 350 349 341 337 339 340 341 340 342
339 343 350 354 355 353 353 353 351 353 357 350 348 349 348 347 347 347 346 346 348 349 348 347 341 344 346 347 346 346 345 344 346 347 347 347 344 342 343 347 346 344 339 337 339 336 340 343 344
337 336 342 352 351 351 352 357 357 357 355 350 348 349 349 347 346 346 345 345 346 345 347 346 339 346 346 346 345 344 342 343 343 344 346 346 342 340 339 343 344 344 342 336 338 340 343 344 344
334 334 336 350 351 354 356 355 355 357 355 352 349 349 348 347 346 346 345 344 344 344 345 343 342 344 345 343 344 344 342 344 345 346 346 346 341 341 340 339 340 341 342 341 343 343 344 344 344
333 333 337 350 351 354 355 359 359 356 355 353 350 348 348 346 346 346 345 344 341 342 343 339 344 345 344 341 343 345 346 348 348 346 347 345 345 343 343 343 341 344 340 342 343 344 344 344 343
325 322 323 349 353 355 355 359 357 356 358 355 351 349 347 345 345 346 346 344 342 343 342 341 344 344 343 341 342 345 347 347 347 347 346 345 346 344 339 344 343 342 338 342 343 344 344 344 342
324 330 324 353 355 358 360 359 358 355 357 359 352 350 348 346 344 345 345 345 343 341 343 344 345 344 344 344 346 347 348 348 347 347 348 346 346 346 341 344 343 341 342 341 343 343 342 343 343
331 326 324 326 351 356 360 358 357 357 357 358 354 351 350 348 343 344 344 344 344 342 344 344 345 345 345 346 346 349 350 350 349 349 348 344 346 347 346 345 344 342 342 343 345 343 342 341 342
325 325 326 324 341 356 357 355 356 356 356 356 354 352 351 349 344 344 343 343 345 344 344 345 346 346 348 348 349 350 349 350 349 349 349 347 347 345 347 345 345 343 342 343 345 344 343 343 342
326 326 326 323 325 327 330 347 355 354 356 355 353 351 350 348 345 343 342 341 344 345 344 345 345 346 347 349 349 349 349 349 349 349 350 349 348 348 347 346 347 346 346 346 346 345 344 345 342
325 325 325 325 326 352 353 351 358 353 353 354 352 350 347 348 347 341 341 341 344 345 345 345 345 346 348 349 349 348 350 350 350 350 349 350 349 349 350 347 347 347 347 347 345 345 344 343 342
329 323 325 324 320 320 335 326 351 355 354 353 354 349 349 347 345 340 340 342 344 345 345 345 345 345 347 349 348 348 349 349 349 349 349 350 351 350 350 349 348 347 347 347 346 345 344 342 340
327 322 323 322 319 318 321 319 322 351 356 353 351 351 348 348 344 341 340 342 345 345 345 345 345 346 347 348 347 347 348 348 348 349 348 350 351 350 350 349 348 349 346 347 347 344 345 344 345
322 318 315 313 313 319 319 317 317 349 345 350 349 349 349 347 348 341 340 340 345 345 345 345 346 346 346 347 347 346 345 348 348 348 349 349 350 351 349 349 348 349 349 348 345 346 346 346 347
317 316 318 320 319 319 313 317 334 333 337 339 338 342 348 349 348 345 341 340 344 345 345 345 346 346 346 346 345 344 342 347 348 348 348 348 349 351 352 350 350 349 348 349 348 348 349 347 348
317 316 318 322 319 319 316 319 333 339 338 341 343 341 339 346 348 347 342 341 342 344 344 345 345 345 345 344 342 344 342 344 348 348 346 346 349 349 349 350 350 350 349 350 350 348 349 349 348
316 313 313 315 315 320 319 327 326 339 339 339 338 340 341 341 347 347 346 341 341 344 344 345 345 345 345 344 343 343 343 342 347 348 347 346 347 350 349 350 348 351 350 350 350 349 349 350 350
311 312 317 314 321 325 322 338 343 341 340 340 338 339 340 341 343 347 346 344 341 343 344 344 345 345 345 345 344 344 344 341 340 346 346 346 347 350 351 350 351 350 351 351 349 350 350 351 350
310 311 310 313 314 320 327 340 337 340 339 337 337 337 339 342 345 342 345 345 342 341 343 344 345 345 345 345 345 345 344 344 341 341 343 344 346 350 350 350 349 351 349 351 351 348 348 350 350
310 311 308 319 318 314 324 334 334 336 336 335 333 334 336 337 339 339 342 344 343 341 342 344 345 345 345 345 345 345 344 345 344 343 340 339 345 345 348 352 350 350 350 351 351 352 350 348 350
Wind_Speed
6 6 5 0 2 1 1 2 1 4 5 6 15 4 7 4 2 3 14 18 31 26 21 19 16 15 15 14 13 12 10 11 10 9 11 9 9 9 9 11 11 11 11 11 12 13 13 14 13
8 7 1 1 1 2 2 2 1 3 8 18 7 9 2 3 4 8 13 31 30 25 21 18 15 14 15 14 13 11 10 10 10 8 8 10 8 9 9 9 10 11 11 11 12 12 13 13 13
9 2 1 2 2 1 3 6 7 8 17 17 5 7 3 2 5 17 21 33 29 24 21 17 14 14 15 14 12 11 11 10 10 8 9 10 10 9 8 9 11 11 12 13 12 12 13 12 11
6 1 1 1 2 0 2 10 3 13 10 7 8 7 4 0 14 12 36 32 28 24 21 17 15 15 14 13 12 11 10 10 10 9 8 9 11 10 8 11 12 12 13 12 12 13 13 11 9
1 1 1 1 3 2 4 4 7 10 5 7 2 4 6 1 10 33 34 30 27 24 20 16 14 14 14 13 12 11 10 11 9 9 8 8 10 11 9 10 13 12 12 13 12 12 11 9 8
1 0 1 2 1 2 2 9 7 3 6 8 7 6 4 16 25 25 31 28 25 24 19 16 14 12 12 12 12 12 11 12 11 10 9 9 10 10 10 9 11 12 12 12 12 12 10 10 11
1 1 1 1 3 3 1 5 6 7 6 4 6 5 6 11 24 25 29 27 24 21 19 16 14 13 11 11 12 12 11 11 11 10 9 9 9 10 11 10 11 12 11 11 12 12 12 12 13
1 2 3 1 2 1 4 2 5 6 3 6 10 6 8 13 25 26 25 24 24 21 18 16 15 13 12 12 12 12 12 11 9 9 9 9 8 8 8 10 10 11 11 11 12 12 10 11 10
2 1 2 1 5 2 5 4 6 10 7 2 2 6 17 26 28 26 23 22 22 19 18 17 16 14 13 13 11 12 11 11 10 8 8 9 9 8 8 9 9 10 10 11 13 11 10 9 7
1 2 3 0 6 9 9 7 6 1 6 8 14 21 27 27 26 23 20 19 18 18 19 17 16 14 15 13 12 13 12 11 11 10 8 10 9 8 9 8 9 9 10 13 12 10 9 6 7
4 3 3 4 7 12 11 7 3 4 0 4 18 20 21 24 22 20 18 21 22 18 20 18 16 15 15 15 13 13 12 12 10 9 9 9 9 9 9 9 9 9 10 12 11 8 7 4 2
2 7 3 6 11 11 10 12 6 6 4 12 16 19 18 15 17 19 17 20 22 21 21 19 17 17 15 14 14 14 12 12 10 9 7 7 8 9 10 9 9 9 8 9 10 6 6 3 2
3 5 5 8 15 10 10 8 6 10 6 12 18 17 16 13 16 17 18 20 24 24 23 21 19 18 16 15 15 15 14 12 10 9 8 7 8 9 9 9 9 8 6 7 7 6 4 2 1
3 6 5 7 9 10 13 6 8 7 9 16 19 17 16 14 17 14 17 20 25 24 24 22 21 18 16 16 16 16 14 11 10 9 8 7 6 8 8 8 8 6 5 6 7 7 5 2 2
2 3 1 3 9 5 6 6 6 12 10 19 17 16 16 16 19 18 22 25 28 26 24 23 21 19 17 17 17 15 13 11 9 6 6 7 8 7 10 8 6 7 7 7 8 7 4 2 3
3 4 2 2 6 2 4 2 8 9 14 17 19 18 15 15 20 22 23 23 25 25 25 24 23 21 18 17 16 14 13 11 8 6 5 8 8 8 9 9 10 6 7 8 6 7 4 1 3
6 3 3 2 7 3 6 1 5 7 10 15 18 18 16 14 19 24 25 28 28 28 26 26 26 24 21 18 16 15 14 12 9 7 6 8 5 7 8 7 10 10 8 7 7 4 3 2 1
2 4 2 3 7 4 5 7 4 6 9 13 17 18 17 17 15 25 27 31 30 31 30 29 27 24 21 17 16 18 19 14 13 10 7 6 8 4 5 7 9 12 9 6 4 4 2 2 3
4 4 1 2 4 4 9 7 8 7 7 11 13 17 16 17 18 22 26 30 30 30 30 31 30 26 22 18 13 14 17 16 14 12 8 6 8 7 7 7 7 8 8 6 6 4 4 2 4
2 3 2 3 1 7 3 3 4 9 2 9 12 13 16 14 12 19 23 24 28 35 35 34 33 30 27 21 18 17 15 12 11 13 9 7 8 5 9 9 7 8 8 7 7 4 4 3 4
2 4 3 4 3 2 2 3 3 2 3 4 6 8 7 14 16 12 20 24 27 29 34 38 38 34 31 26 20 16 15 11 11 11 10 10 8 8 7 9 7 8 7 8 9 6 3 4 3
2 7 5 2 2 2 2 3 1 3 5 5 4 6 9 9 11 12 19 23 27 33 36 39 39 38 34 31 25 22 20 16 14 13 11 9 8 8 7 9 7 8 8 9 7 5 4 3 1
8 6 6 4 3 2 2 4 5 1 7 11 10 7 9 8 10 16 23 28 31 29 34 38 40 39 38 34 30 25 20 18 14 14 11 11 9 9 8 9 8 8 12 9 7 7 5 3 1
4 5 7 5 3 2 2 4 5 4 7 7 3 8 10 13 11 15 25 27 28 30 31 31 37 40 39 37 34 29 26 20 18 14 13 14 12 12 10 11 12 11 11 11 11 10 8 5 4
5 6 3 3 2 5 5 4 1 7 6 6 8 8 15 14 14 10 17 25 28 30 32 33 37 39 39 38 36 33 29 25 21 19 16 16 16 15 15 14 12 12 12 11 10 10 10 8 6
2 6 5 6 5 4 2 5 5 5 6 10 8 9 11 17 16 17 17 27 30 32 33 35 36 37 40 38 37 35 30 30 26 21 18 16 17 19 17 17 14 11 11 12 12 11 11 10 9
1 5 2 7 3 4 1 4 2 15 16 19 17 15 16 12 18 19 20 27 29 32 34 37 38 39 39 42 38 35 31 33 31 26 21 19 17 20 20 18 16 14 13 12 12 13 12 12 11
7 1 3 3 4 3 3 3 3 17 20 20 22 22 21 8 11 13 14 22 27 32 33 33 36 41 46 44 43 38 36 32 34 30 26 22 19 19 21 20 20 16 17 15 13 13 13 12 11
6 5 5 4 3 5 4 2 6 9 13 15 16 17 19 18 15 1 4 16 16 25 27 30 33 36 35 40 41 41 38 36 32 32 32 28 21 20 22 23 23 21 19 18 17 15 14 14 12
5 2 2 4 3 2 3 1 6 10 12 13 15 15 17 19 18 17 19 17 9 21 23 24 26 28 34 38 39 42 41 39 36 33 32 32 29 25 19 18 20 22 21 21 22 21 19 17 16
Wind_Direction
126 154 134 255 273 175 232 281 190 121 124 149 149 141 177 79 182 189 149 153 153 151 150 148 152 150 143 138 140 135 128 121 123 121 118 114 119 121 124 117 118 114 110 102 99 101 99 103 104
155 149 199 276 302 31 310 229 77 207 134 137 167 125 103 102 97 119 131 151 152 149 147 147 153 156 152 148 143 137 128 126 129 124 122 118 106 110 113 121 125 120 115 110 106 106 104 105 107
161 119 359 40 31 305 310 35 323 120 132 154 108 42 44 67 108 142 151 150 149 147 147 144 145 149 153 152 142 140 138 138 129 134 125 118 114 118 120 127 118 114 119 118 110 107 107 104 96
153 318 313 197 196 54 284 311 223 117 105 58 107 71 63 266 133 153 149 149 148 147 145 145 139 143 147 149 155 147 144 138 134 132 123 127 119 116 121 113 116 113 114 111 110 110 111 111 98
159 93 268 355 81 29 329 333 235 132 88 99 127 90 107 31 130 144 149 150 147 146 149 151 148 147 154 155 153 149 146 137 140 121 120 121 118 115 112 104 109 100 102 107 110 112 113 112 114
77 90 6 33 97 334 12 22 342 324 76 123 98 109 120 137 133 147 151 150 148 148 152 152 146 147 156 163 154 154 149 139 136 130 125 119 111 113 116 109 109 110 109 109 113 111 105 101 110
100 16 27 176 172 293 107 17 354 345 112 112 135 93 116 142 142 151 154 150 149 151 148 150 154 150 153 150 149 153 149 144 136 134 129 125 114 115 114 111 105 102 107 110 111 111 104 101 107
188 120 323 259 194 244 93 97 338 352 2 115 150 155 159 158 145 152 153 151 149 151 153 155 151 150 153 153 150 152 152 152 141 140 130 127 121 119 118 115 107 105 107 112 121 111 102 99 108
276 358 290 247 167 109 85 78 342 282 179 82 143 141 136 140 143 142 142 149 149 153 156 157 155 156 153 150 150 150 148 151 147 144 132 130 134 141 136 119 108 105 107 118 120 116 112 107 95
140 132 220 217 128 146 138 107 276 100 156 60 90 113 134 138 141 144 151 153 156 164 166 166 165 166 161 154 161 157 160 159 155 153 145 136 138 141 137 123 117 113 114 118 133 127 128 118 86
198 219 213 107 117 141 145 137 101 297 104 161 142 142 144 145 151 151 159 165 167 170 174 176 175 173 168 166 169 167 169 163 161 152 146 144 141 148 146 141 141 141 126 139 139 141 146 126 56
229 234 258 130 148 152 162 138 161 205 78 144 150 149 148 152 160 160 162 167 172 171 180 178 176 177 175 172 178 174 173 169 167 162 161 159 158 158 157 156 157 147 133 135 146 146 142 119 86
205 278 211 154 163 162 160 180 175 197 151 142 144 152 150 158 167 171 170 176 181 180 180 183 179 182 183 179 180 179 173 172 174 179 181 165 165 163 160 161 162 155 150 125 145 150 147 140 53
216 230 248 167 172 156 174 177 168 183 171 157 153 161 161 164 175 161 167 177 188 189 186 184 186 184 188 185 185 184 182 185 190 193 191 173 177 180 165 168 175 176 166 149 151 150 156 161 329
251 302 352 145 163 175 159 151 221 161 178 157 159 164 169 169 169 177 180 185 192 194 191 186 186 184 190 187 185 187 187 194 208 207 223 213 211 210 215 214 188 188 192 167 153 151 150 141 33
36 63 44 341 153 219 162 216 194 139 169 168 171 174 170 173 176 183 191 192 194 195 195 186 185 184 186 188 191 198 201 208 207 230 227 213 215 198 202 203 197 184 173 151 156 142 155 141 61
19 118 76 101 215 150 213 331 167 176 175 167 174 176 179 180 182 186 193 197 196 197 192 189 186 187 188 191 200 208 214 222 230 228 224 212 205 193 190 193 186 176 156 145 141 136 151 144 199
174 91 3 120 212 233 179 257 149 190 179 174 174 177 181 188 189 186 192 201 198 196 197 192 189 189 193 202 214 228 228 234 235 248 231 212 202 177 180 174 166 178 173 161 130 137 191 211 265
120 104 3 290 192 184 210 248 188 187 181 174 180 181 186 192 188 189 193 198 196 197 203 200 195 194 197 203 202 199 207 224 233 225 222 209 183 180 199 169 157 169 170 167 170 172 185 228 249
121 103 287 290 283 191 345 327 164 174 186 184 187 189 189 186 187 194 193 192 192 197 203 205 204 197 198 196 190 183 187 207 216 211 219 195 207 215 174 185 175 192 194 188 187 188 196 225 212
115 159 199 212 21 19 73 356 115 136 121 160 207 195 192 189 194 193 191 192 194 198 200 208 208 202 201 196 189 187 190 195 196 205 208 198 203 209 194 188 181 176 188 190 179 194 217 193 200
186 208 185 222 91 229 127 285 0 170 212 221 218 181 202 189 190 191 192 196 195 203 204 209 212 206 204 203 198 193 191 195 209 208 213 211 209 212 210 210 209 198 197 182 193 206 226 201 195
216 157 177 178 168 86 319 77 267 166 218 225 216 206 199 204 185 196 192 197 199 200 203 206 213 211 206 207 206 201 200 205 208 213 223 221 218 227 223 211 224 216 199 209 213 220 234 250 212
107 76 43 51 89 50 229 124 354 11 325 336 232 227 226 210 201 195 199 193 197 198 197 201 208 213 209 208 212 210 210 202 206 214 226 226 218 228 226 221 222 230 216 220 222 218 228 247 256
89 82 28 40 52 199 4 67 210 307 351 358 325 283 219 210 219 199 190 193 195 194 194 197 205 210 212 210 214 216 215 207 211 214 221 227 227 231 230 234 229 231 232 231 221 220 222 227 240
84 150 151 167 172 189 62 171 187 25 7 349 346 307 291 219 198 199 197 194 194 194 194 195 202 208 213 215 215 215 218 211 213 217 218 229 235 234 234 233 233 234 237 227 229 230 230 234 237
209 66 188 106 6 84 220 330 50 2 8 5 1 356 340 269 213 203 192 195 191 195 197 196 200 206 213 214 216 218 218 215 215 220 223 229 241 236 236 235 237 236 237 238 236 233 241 246 243
88 6 66 11 128 156 33 47 321 1 359 356 2 4 357 326 225 205 203 194 192 197 199 200 203 204 212 216 217 218 220 219 220 222 226 231 236 234 237 245 243 238 237 241 245 246 248 249 253
5 9 23 110 93 149 134 298 9 2 9 3 1 12 16 23 23 10 184 185 199 199 198 202 203 202 207 212 217 220 222 222 220 223 227 231 234 232 244 247 243 239 236 236 242 248 250 252 255
42 56 113 122 217 54 117 158 8 27 14 9 20 20 30 33 34 35 35 39 154 192 198 202 207 206 208 214 214 219 224 225 225 225 227 224 229 236 247 245 242 241 241 241 242 245 248 252 256